| time (UTC) | temp C | wind direction | speed KPH | gust KPH | rain 1hr cm | rain 24hr cm | rain mn cm | humidity % | barometer mb |
| 20260506112532 | 6 | 0.0 | 0.0 | 0.00 | 3.23 | 0.64 | 98 | 1010.9 | |
| 20260506111516 | 6 | 0.0 | 0.0 | 0.00 | 3.23 | 0.64 | 98 | 1010.7 | |
| 20260506110517 | 6 | 338 | 0.0 | 1.6 | 0.00 | 3.23 | 0.64 | 98 | 1010.8 |
| 20260506105519 | 6 | 13 | 3.2 | 4.8 | 0.03 | 3.23 | 0.64 | 98 | 1010.8 |
| 20260506104520 | 6 | 340 | 3.2 | 6.4 | 0.03 | 3.23 | 0.64 | 98 | 1010.8 |
| 20260506103521 | 6 | 351 | 3.2 | 6.4 | 0.03 | 3.23 | 0.64 | 98 | 1010.4 |
| 20260506102516 | 6 | 323 | 1.6 | 3.2 | 0.05 | 3.23 | 0.64 | 98 | 1010.1 |
| 20260506101524 | 6 | 308 | 1.6 | 3.2 | 0.08 | 3.23 | 0.64 | 98 | 1010.0 |
| 20260506100525 | 6 | 305 | 0.0 | 3.2 | 0.08 | 3.23 | 0.64 | 98 | 1010.1 |
| 20260506095526 | 6 | 67 | 1.6 | 4.8 | 0.08 | 3.20 | 0.61 | 98 | 1010.6 |
| 20260506094528 | 6 | 309 | 4.8 | 6.4 | 0.08 | 3.20 | 0.61 | 98 | 1011.1 |
| 20260506093529 | 7 | 300 | 4.8 | 6.4 | 0.08 | 3.20 | 0.61 | 98 | 1010.9 |
| 20260506092531 | 7 | 328 | 4.8 | 9.7 | 0.10 | 3.17 | 0.58 | 98 | 1010.7 |
| 20260506091533 | 7 | 262 | 1.6 | 4.8 | 0.13 | 3.15 | 0.56 | 98 | 1010.5 |
| 20260506090515 | 7 | 270 | 0.0 | 3.2 | 0.15 | 3.15 | 0.56 | 98 | 1010.4 |
| 20260506085517 | 7 | 0.0 | 3.2 | 0.15 | 3.12 | 0.53 | 97 | 1009.9 | |
| 20260506084518 | 7 | 45 | 0.0 | 3.2 | 0.18 | 3.12 | 0.53 | 97 | 1010.4 |
| 20260506083539 | 7 | 315 | 0.0 | 3.2 | 0.20 | 3.12 | 0.53 | 97 | 1010.7 |
| 20260506082521 | 7 | 18 | 1.6 | 4.8 | 0.18 | 3.07 | 0.48 | 97 | 1010.9 |
| 20260506081516 | 7 | 300 | 0.0 | 3.2 | 0.15 | 3.02 | 0.43 | 97 | 1010.9 |
| 20260506080544 | 7 | 348 | 1.6 | 3.2 | 0.13 | 3.00 | 0.41 | 97 | 1010.8 |
| 20260506073528 | 6 | 347 | 1.6 | 3.2 | 0.08 | 2.92 | 0.33 | 97 | 1010.4 |
| 20260506072529 | 7 | 347 | 3.2 | 4.8 | 0.05 | 2.90 | 0.30 | 97 | 1010.3 |
| 20260506071530 | 7 | 350 | 1.6 | 3.2 | 0.05 | 2.87 | 0.28 | 97 | 1010.3 |
| 20260506070532 | 7 | 2 | 1.6 | 4.8 | 0.05 | 2.87 | 0.28 | 97 | 1010.4 |
| 20260506061521 | 7 | 335 | 3.2 | 3.2 | 0.10 | 2.82 | 0.23 | 97 | 1010.4 |
| 20260506060516 | 7 | 315 | 0.0 | 3.2 | 0.13 | 2.82 | 0.23 | 97 | 1010.4 |
| 20260506050530 | 7 | 358 | 1.6 | 6.4 | 0.10 | 2.69 | 0.10 | 97 | 1011.0 |
| 20260506044515 | 7 | 346 | 3.2 | 6.4 | 0.10 | 2.67 | 0.08 | 97 | 1011.3 |
| 20260506043517 | 7 | 337 | 1.6 | 3.2 | 0.13 | 2.67 | 0.08 | 97 | 1011.3 |
| 20260506042518 | 7 | 26 | 1.6 | 4.8 | 0.15 | 2.64 | 0.05 | 97 | 1011.5 |
| 20260506041519 | 7 | 358 | 3.2 | 6.4 | 0.15 | 2.62 | 0.03 | 97 | 1011.6 |
| 20260506040521 | 7 | 347 | 3.2 | 4.8 | 0.18 | 2.59 | 0.00 | 97 | 1011.6 |
| 20260506035516 | 8 | 287 | 1.6 | 6.4 | 0.25 | 2.59 | 2.59 | 97 | 1011.7 |
| 20260506034524 | 8 | 328 | 1.6 | 4.8 | 0.28 | 2.57 | 2.57 | 97 | 1011.8 |
| 20260506033525 | 8 | 330 | 3.2 | 8.0 | 0.33 | 2.54 | 2.54 | 97 | 1011.7 |
| 20260506032527 | 8 | 332 | 3.2 | 4.8 | 0.33 | 2.49 | 2.49 | 97 | 1011.8 |
| 20260506031618 | 8 | 299 | 1.6 | 4.8 | 0.38 | 2.46 | 2.46 | 97 | 1011.8 |
| 20260506030529 | 8 | 334 | 1.6 | 4.8 | 0.41 | 2.41 | 2.41 | 97 | 1011.7 |
| 20260506025530 | 8 | 348 | 1.6 | 6.4 | 0.38 | 2.34 | 2.34 | 97 | 1011.5 |
| 20260506024532 | 8 | 326 | 1.6 | 4.8 | 0.38 | 2.29 | 2.29 | 97 | 1011.2 |
| 20260506023516 | 8 | 9 | 3.2 | 4.8 | 0.33 | 2.21 | 2.21 | 97 | 1011.3 |
| 20260506022517 | 8 | 335 | 3.2 | 6.4 | 0.30 | 2.16 | 2.16 | 97 | 1011.2 |
| 20260506021518 | 8 | 3 | 3.2 | 4.8 | 0.23 | 2.08 | 2.08 | 97 | 1011.2 |
| 20260506020520 | 8 | 349 | 0.0 | 3.2 | 0.18 | 2.01 | 2.01 | 97 | 1011.3 |
| 20260506015521 | 8 | 0 | 0.0 | 3.2 | 0.18 | 1.96 | 1.96 | 96 | 1011.4 |
| 20260506014517 | 8 | 315 | 0.0 | 3.2 | 0.18 | 1.91 | 1.91 | 96 | 1011.2 |
| 20260506013524 | 8 | 0.0 | 0.0 | 0.20 | 1.88 | 1.88 | 96 | 1011.2 | |
| 20260506012545 | 9 | 0.0 | 0.0 | 0.18 | 1.85 | 1.85 | 96 | 1011.0 | |
| 20260506011527 | 8 | 0.0 | 0.0 | 0.18 | 1.85 | 1.85 | 96 | 1011.0 | |
| 20260506010549 | 8 | 0.0 | 0.0 | 0.15 | 1.83 | 1.83 | 96 | 1011.0 | |
| 20260506005530 | 8 | 7 | 1.6 | 4.8 | 0.13 | 1.78 | 1.78 | 96 | 1010.9 |
| 20260506004531 | 8 | 0.0 | 0.0 | 0.08 | 1.73 | 1.73 | 96 | 1010.7 | |
| 20260506003533 | 8 | 0.0 | 0.0 | 0.05 | 1.68 | 1.68 | 96 | 1010.8 | |
| 20260506002536 | 8 | 293 | 0.0 | 3.2 | 0.08 | 1.68 | 1.68 | 96 | 1010.7 |
| 20260506001518 | 8 | 0.0 | 0.0 | 0.13 | 1.68 | 1.68 | 96 | 1010.6 | |
| 20260506000519 | 8 | 0.0 | 0.0 | 0.23 | 1.68 | 1.68 | 96 | 1010.6 | |
| 20260505235520 | 8 | 31 | 3.2 | 4.8 | 0.25 | 1.65 | 1.65 | 96 | 1010.6 |
| 20260505234521 | 8 | 117 | 3.2 | 3.2 | 0.28 | 1.65 | 1.65 | 95 | 1011.2 |
| 20260505233517 | 8 | 351 | 1.6 | 3.2 | 0.36 | 1.63 | 1.63 | 95 | 1011.0 |
| 20260505232524 | 8 | 352 | 3.2 | 6.4 | 0.38 | 1.60 | 1.60 | 95 | 1011.3 |
| 20260505231601 | 8 | 353 | 3.2 | 4.8 | 0.41 | 1.55 | 1.55 | 95 | 1011.2 |
| 20260505230522 | 8 | 317 | 3.2 | 4.8 | 0.33 | 1.45 | 1.45 | 95 | 1010.9 |
| 20260505225523 | 8 | 351 | 4.8 | 6.4 | 0.36 | 1.40 | 1.40 | 94 | 1011.0 |
| 20260505224525 | 8 | 353 | 3.2 | 8.0 | 0.38 | 1.37 | 1.37 | 94 | 1011.3 |
| 20260505223606 | 8 | 304 | 1.6 | 3.2 | 0.33 | 1.27 | 1.27 | 94 | 1011.1 |
| 20260505222531 | 8 | 316 | 4.8 | 6.4 | 0.36 | 1.22 | 1.22 | 94 | 1011.0 |
| 20260505221529 | 9 | 338 | 4.8 | 6.4 | 0.43 | 1.14 | 1.14 | 94 | 1010.9 |
| 20260505220551 | 9 | 337 | 3.2 | 4.8 | 0.53 | 1.12 | 1.12 | 94 | 1010.8 |
| 20260505215532 | 9 | 293 | 4.8 | 6.4 | 0.53 | 1.04 | 1.04 | 93 | 1010.7 |
| 20260505214515 | 10 | 340 | 4.8 | 6.4 | 0.53 | 0.99 | 0.99 | 93 | 1010.9 |
| 20260505213516 | 10 | 296 | 3.2 | 8.0 | 0.53 | 0.94 | 0.94 | 93 | 1011.0 |
| 20260505212518 | 10 | 325 | 6.4 | 8.0 | 0.61 | 0.86 | 0.86 | 93 | 1010.8 |
| 20260505211520 | 10 | 350 | 6.4 | 11.3 | 0.51 | 0.71 | 0.71 | 92 | 1010.7 |
| 20260505210521 | 11 | 345 | 6.4 | 11.3 | 0.41 | 0.58 | 0.58 | 92 | 1010.4 |
| 20260505205522 | 12 | 307 | 4.8 | 9.7 | 0.38 | 0.51 | 0.51 | 92 | 1010.4 |
| 20260505204523 | 12 | 317 | 3.2 | 6.4 | 0.38 | 0.46 | 0.46 | 91 | 1010.4 |
| 20260505203545 | 12 | 340 | 3.2 | 4.8 | 0.36 | 0.41 | 0.41 | 90 | 1010.4 |
| 20260505202525 | 13 | 279 | 1.6 | 3.2 | 0.25 | 0.25 | 0.25 | 89 | 1010.3 |
| 20260505201527 | 13 | 323 | 1.6 | 3.2 | 0.20 | 0.20 | 0.20 | 89 | 1010.3 |
| 20260505200549 | 13 | 357 | 1.6 | 4.8 | 0.18 | 0.18 | 0.18 | 88 | 1010.4 |
| 20260505195550 | 13 | 336 | 1.6 | 4.8 | 0.13 | 0.13 | 0.13 | 86 | 1010.7 |
| 20260505194531 | 13 | 299 | 3.2 | 4.8 | 0.08 | 0.08 | 0.08 | 85 | 1010.4 |
| 20260505193527 | 13 | 333 | 3.2 | 8.0 | 0.05 | 0.05 | 0.05 | 83 | 1010.8 |
| 20260505192516 | 14 | 281 | 4.8 | 6.4 | 0.00 | 0.00 | 0.00 | 81 | 1010.7 |
| 20260505191538 | 14 | 282 | 4.8 | 6.4 | 0.00 | 0.00 | 0.00 | 79 | 1010.7 |
| 20260505190519 | 15 | 291 | 3.2 | 6.4 | 0.00 | 0.00 | 0.00 | 77 | 1010.7 |
| 20260505185533 | 16 | 291 | 3.2 | 8.0 | 0.00 | 0.00 | 0.00 | 75 | 1010.8 |
| 20260505184516 | 16 | 313 | 4.8 | 11.3 | 0.00 | 0.00 | 0.00 | 73 | 1010.8 |
| 20260505183518 | 17 | 298 | 4.8 | 8.0 | 0.00 | 0.00 | 0.00 | 71 | 1010.6 |
| 20260505182519 | 17 | 269 | 3.2 | 4.8 | 0.00 | 0.00 | 0.00 | 71 | 1010.5 |
| 20260505181540 | 17 | 350 | 3.2 | 6.4 | 0.00 | 0.00 | 0.00 | 71 | 1010.4 |
| 20260505180522 | 17 | 260 | 4.8 | 9.7 | 0.00 | 0.00 | 0.00 | 70 | 1010.4 |
| 20260505175523 | 17 | 273 | 4.8 | 4.8 | 0.00 | 0.00 | 0.00 | 70 | 1010.4 |
| 20260505174524 | 17 | 295 | 4.8 | 6.4 | 0.00 | 0.00 | 0.00 | 70 | 1010.4 |
| 20260505173526 | 17 | 244 | 3.2 | 4.8 | 0.00 | 0.00 | 0.00 | 70 | 1010.2 |
| 20260505172528 | 17 | 326 | 4.8 | 8.0 | 0.00 | 0.00 | 0.00 | 69 | 1010.2 |
| 20260505171523 | 17 | 279 | 3.2 | 6.4 | 0.00 | 0.00 | 0.00 | 68 | 1010.2 |
| 20260505170518 | 17 | 284 | 4.8 | 9.7 | 0.00 | 0.00 | 0.00 | 67 | 1010.2 |
| 20260505165532 | 17 | 317 | 4.8 | 6.4 | 0.00 | 0.00 | 0.00 | 66 | 1010.2 |
| 20260505164528 | 17 | 284 | 6.4 | 9.7 | 0.00 | 0.00 | 0.00 | 63 | 1010.2 |
| 20260505163529 | 18 | 328 | 4.8 | 8.0 | 0.00 | 0.00 | 0.00 | 59 | 1010.1 |
| 20260505162531 | 21 | 231 | 6.4 | 9.7 | 0.00 | 0.00 | 0.00 | 57 | 1009.9 |
| 20260505161552 | 21 | 254 | 9.7 | 17.7 | 0.00 | 0.00 | 0.00 | 57 | 1009.7 |
| 20260505160515 | 21 | 225 | 9.7 | 12.9 | 0.00 | 0.00 | 0.00 | 58 | 1009.7 |
| 20260505152521 | 20 | 216 | 8.0 | 9.7 | 0.00 | 0.00 | 0.00 | 61 | 1009.0 |
| 20260505151522 | 20 | 227 | 9.7 | 19.3 | 0.00 | 0.00 | 0.00 | 63 | 1009.2 |
| 20260505150524 | 19 | 136 | 6.4 | 9.7 | 0.00 | 0.00 | 0.00 | 65 | 1009.2 |
| 20260505124519 | 16 | 214 | 9.7 | 16.1 | 0.00 | 0.00 | 0.00 | 70 | 1008.5 |
| 20260505123527 | 16 | 218 | 8.0 | 12.9 | 0.00 | 0.00 | 0.00 | 70 | 1008.4 |
| 20260505122528 | 16 | 219 | 8.0 | 11.3 | 0.00 | 0.00 | 0.00 | 70 | 1008.0 |
| 20260505121529 | 16 | 229 | 9.7 | 12.9 | 0.00 | 0.00 | 0.00 | 69 | 1007.8 |
| 20260505120531 | 16 | 273 | 8.0 | 14.5 | 0.00 | 0.00 | 0.00 | 68 | 1007.6 |
| 20260505115533 | 16 | 225 | 8.0 | 11.3 | 0.00 | 0.00 | 0.00 | 67 | 1007.8 |
| 20260505114516 | 16 | 217 | 12.9 | 17.7 | 0.00 | 0.00 | 0.00 | 65 | 1007.7 |
| 20260505113537 | 17 | 180 | 9.7 | 17.7 | 0.00 | 0.00 | 0.00 | 65 | 1007.7 |